Location: Hauppauge
(40.8260°N, 73.2030°W)
Time: 11:40:50
(UTC-04:00)

Daily predictions for brighter satellites

Satellite Brightness Start Highest point End
(mag) Time Altitude Azimuth Time Altitude Azimuth Time Altitude Azimuth
Cosmos 1340 Rocket 4.4 20:44:06 10° SE 20:46:56 18° E 20:49:47 10° NE
Timation 2 Rocket 3.9 20:41:08 10° SSW 20:47:02 70° ESE 20:53:05 10° NNE
SJ-11-01 4.3 20:44:14 10° SSE 20:48:56 76° ENE 20:53:42 10° N
Spot 2 Rocket 3.6 20:46:40 10° SSE 20:51:38 65° ENE 20:56:39 10° N
Cosmos 468 Rocket 4.0 20:48:42 10° SSW 20:53:58 81° ESE 20:59:13 10° NNE
Cosmos 1937 Rocket 3.8 20:51:09 10° N 20:56:10 52° ENE 21:01:11 10° SE
Resurs 1-3 3.8 20:52:17 10° S 20:56:40 78° WSW 21:01:04 10° NNW
Cosmos 1763 Rocket 3.6 20:53:20 10° S 20:58:29 55° ESE 21:03:38 10° NNE
Cosmos 2298 Rocket 4.5 20:56:27 10° N 21:01:34 47° ENE 21:06:27 11° SE
Cosmos 1455 Rocket 4.0 20:59:46 10° NNE 21:03:40 31° ENE 21:07:12 12° SE
Cosmos 841 Rocket 3.9 21:00:05 10° S 21:05:00 43° ESE 21:09:59 10° NNE
BREEZE-M DEB (TANK) 2.7 21:07:19 10° WNW 21:09:59 29° SW 21:11:29 13° SSE
Tsikada Rocket 4.5 21:04:18 10° NNW 21:10:40 66° W 21:17:00 10° S
BREEZE-M DEB (TANK) 2.7 21:08:34 10° WNW 21:10:45 49° SSW 21:13:55 13° SE
Cosmos 2360 Rocket 3.0 21:07:29 10° N 21:12:43 38° ENE 21:17:11 14° ESE
USA 234 3.2 21:07:02 10° NE 21:13:35 67° SE 21:20:06 10° SW
USA 32 4.5 21:09:19 10° N 21:14:21 44° E 21:18:51 12° SSE
Atlas Centaur 2 3.3 21:12:48 10° SW 21:14:21 12° SSW 21:15:50 10° S
Cosmos 1975 Rocket 3.0 21:10:15 10° S 21:14:33 90° SE 21:18:54 10° N
ERS-2 3.5 21:11:41 10° S 21:15:09 38° W 21:18:38 10° NNW
Cosmos 1980 Rocket 4.0 21:10:27 10° NW 21:15:11 28° WSW 21:19:54 10° SSW
Cosmos 2219 Rocket 4.3 21:12:45 10° NNE 21:15:28 13° NE 21:18:10 10° ENE
Abrixas rocket 3.8 21:13:38 10° W 21:16:39 36° NNW 21:19:40 10° NE
Okean 1 Rocket 4.4 21:12:54 10° NNW 21:16:58 40° W 21:21:00 10° SSW
USA 186 4.3 21:15:21 10° SW 21:17:54 21° W 21:20:32 10° NW
Cosmos 1975 3.6 21:14:45 10° NNW 21:18:41 51° W 21:22:34 10° S
Cosmos 1666 3.2 21:15:11 10° NNW 21:19:01 60° W 21:22:49 10° S
Meteor 1-19 Rocket 4.4 21:14:44 10° S 21:20:39 90° E 21:26:36 10° N
NOSS 3-2 (C) 4.1 21:16:09 10° SW 21:21:59 60° NW 21:28:30 10° NNE
ISS -0.9 21:20:52 10° WNW 21:23:16 18° NNW 21:25:39 10° NNE
Cosmos 2084 4.3 21:20:24 10° SW 21:24:37 52° NW 21:28:38 10° NNE
Tiangong 2 1.6 21:21:38 10° W 21:24:45 59° N 21:27:53 10° ENE
Meteor 2-9 Rocket 4.1 21:22:19 10° N 21:27:41 73° E 21:32:34 13° SSE
Shenzhou-11 Module 1.8 21:24:48 10° WNW 21:27:47 85° SSW 21:29:32 22° ESE
MetOp-A 4.2 21:23:31 13° SSE 21:28:12 65° ENE 21:33:31 10° N
Cosmos 292 Rocket 3.7 21:24:42 10° S 21:29:25 68° ESE 21:34:09 10° NNE
ERS-1 Rocket 3.5 21:27:43 17° SE 21:31:15 44° ENE 21:36:00 10° N
Cosmos 1544 Rocket 3.6 21:26:51 10° N 21:31:15 63° E 21:34:35 17° SSE
ATLAS CENTAUR R/B 4.4 21:25:06 10° SW 21:31:35 80° NW 21:52:15 10° NE
Cosmos 1743 3.9 21:30:41 10° NNW 21:34:18 41° W 21:37:52 10° SSW
CENTAUR R/B 2.4 21:32:11 10° SSW 21:38:04 85° SE 21:44:55 10° NE
Iridium 2 4.1 21:34:23 10° SSW 21:38:09 63° W 21:41:58 10° N
SJ 16-02 2.2 21:37:05 10° N 21:41:13 37° ENE 21:43:26 22° ESE
Cosmos 2333 Rocket 4.0 21:37:59 10° N 21:41:59 19° NE 21:45:41 11° E
Helios 1B rocket 3.8 21:39:09 10° NE 21:42:19 21° E 21:42:55 20° ESE
Cosmos 1356 3.3 21:42:01 17° S 21:44:32 73° E 21:48:00 10° NNE
CZ-4C R/B 3.8 21:38:02 10° NNW 21:44:35 38° NE 21:50:37 15° ESE
Meteor 1-23 Rocket 4.3 21:39:39 12° S 21:44:38 58° E 21:50:05 10° NNE
COSMOS 2428 3.9 21:40:22 10° N 21:45:18 30° NE 21:48:38 17° ESE
Cosmos 1536 Rocket 3.6 21:44:47 18° S 21:47:59 62° E 21:52:24 10° NNE
SPOT 1/Viking Rocket 4.2 21:45:41 22° SE 21:48:32 39° ENE 21:53:18 10° N
Resurs 01 Rocket 3.9 21:47:47 10° SW 21:51:08 21° W 21:54:29 10° NW
H-2A R/B 1.9 21:48:25 20° SSE 21:51:54 86° ENE 21:56:59 10° NNW
Cosmos 1833 4.2 21:46:29 10° SSW 21:52:14 90° NNE 21:57:57 10° NNE
Meteor 2-4 Rocket 4.0 21:48:51 10° SSW 21:54:14 67° W 21:59:50 10° N
Cosmos 1125 Rocket 4.1 21:50:09 10° N 21:55:11 44° ENE 21:57:45 25° ESE
SL-08 RB Rocket 3.7 21:52:38 22° SSE 21:55:35 86° WSW 22:00:12 10° NNW
Aureole 2 Rocket 2.8 21:57:07 10° NNW 21:59:52 42° WSW 22:00:42 31° SSW
Nadezhda 4 Rocket 4.3 21:53:50 10° N 22:00:01 53° ENE 22:03:30 26° SE
Lacrosse 5 rocket 1.4 21:56:22 10° NW 22:00:42 70° NE 22:02:25 33° ESE
ARGOS 3.5 21:56:26 16° S 22:00:46 64° WSW 22:06:10 10° NNW
Cosmos 1515 3.7 22:00:43 20° SSW 22:03:19 78° W 22:07:10 10° N
Cosmos 2227 Rocket 4.2 22:05:57 12° E 22:05:57 12° E 22:07:15 10° ENE
Cosmos 2322 Rocket 3.5 22:02:34 10° NW 22:07:31 33° WSW 22:12:02 12° SSW
Cosmos 2322 3.7 22:02:17 10° NNW 22:08:03 77° ENE 22:10:59 30° SSE
Cosmos 836 Rocket 4.4 22:05:24 16° S 22:09:36 73° ESE 22:14:49 10° NNE
Cosmos 2237 Rocket 4.1 22:07:36 10° N 22:11:30 18° NE 22:14:39 12° E
DMSP B5D2-2 4.0 22:07:28 10° NNE 22:12:47 75° ESE 22:16:12 22° S
SL-16 R/B 3.9 22:13:00 10° NW 22:17:35 26° WSW 22:22:10 10° SSW
Cosmos 1066 Rocket 4.3 22:16:42 33° SSE 22:18:42 50° E 22:23:58 10° NNE
CARTOSAT-1 4.1 22:19:05 36° ESE 22:20:07 43° ENE 22:24:13 10° N
Landsat 7 3.9 22:18:59 38° SE 22:20:40 62° ENE 22:25:23 10° N
Cosmos 1025 Rocket 2.9 22:27:27 44° S 22:28:46 78° E 22:33:10 10° N
Cosmos 540 Rocket 4.1 22:24:07 10° SW 22:29:10 55° WNW 22:34:17 10° N
Cosmos 2034 Rocket 4.3 22:29:19 14° SSW 22:34:32 63° W 22:40:40 10° N
Cosmos 2219 3.3 22:34:42 37° S 22:36:48 59° ESE 22:42:28 10° NNE
Cosmos 1606 Rocket 4.1 22:34:29 10° N 22:38:43 41° ENE 22:39:09 40° E
Cosmos 2237 4.5 22:33:06 10° NNW 22:38:45 62° WSW 22:41:05 35° S
SPOT 5 2.9 22:37:55 40° SSW 22:39:19 63° WSW 22:43:52 10° NNW
Terra 1.9 22:38:20 48° SE 22:39:27 63° ENE 22:44:10 10° N
Cosmos 1544 3.3 22:37:39 10° N 22:41:11 56° ENE 22:41:11 56° ENE
Meteor 1-22 Rocket 4.5 22:37:14 10° N 22:42:23 47° ENE 22:43:33 40° ESE
Spot 1 3.8 22:44:11 68° SSE 22:44:41 85° ENE 22:48:46 10° NNW
Cosmos 1766 4.1 22:42:54 10° N 22:46:27 37° ENE 22:46:27 37° ENE
Intercosmos 25 4.5 22:52:55 33° ENE 22:52:55 33° ENE 22:55:30 10° NNE
Helios 1A 4.0 22:51:27 32° SW 22:52:31 38° W 22:56:26 10° NNW
Cosmos 2195 Rocket 4.4 22:48:36 10° N 22:54:45 70° E 22:56:37 46° SSE
DELTA 2 R/B (1) 4.3 22:49:52 10° SW 22:53:21 34° SSW 22:53:21 34° SSW
Cosmos 1627 Rocket 4.5 22:49:12 10° N 22:55:20 67° E 22:57:06 46° SE
CZ-2C R/B 3.0 22:49:59 10° NNE 22:55:24 47° E 22:56:06 45° ESE
YAOGAN 11 4.0 22:55:17 65° SE 22:55:48 73° ENE 23:00:19 10° N
USA 234 4.5 22:50:17 10° NE 22:56:21 42° NNW 23:02:25 10° W
Cosmos 2360 Rocket 3.5 22:51:41 10° NW 22:56:34 30° WSW 22:58:58 22° SW
BREEZE M DEB (TANK) 4.1 22:53:31 10° WNW 22:58:22 23° WSW 22:58:39 22° SW
Cosmos 2219 Rocket 2.1 22:54:43 10° NNW 23:00:20 81° ENE 23:01:38 54° SE
Cosmos 1634 Rocket 3.9 22:58:16 41° S 23:00:40 85° E 23:07:03 10° N
ISS -0.6 22:59:13 10° NNW 23:00:44 13° N 23:02:15 10° NNE
Tiangong 2 2.8 22:58:28 10° WNW 23:00:16 31° WNW 23:00:16 31° WNW
Cosmos 2333 4.3 22:56:04 10° NNW 23:01:42 65° WSW 23:03:12 47° S
Spot 4 4.3 23:09:03 46° E 23:09:29 48° ENE 23:14:09 10° N
COSMOS 2455 3.1 23:10:58 46° ESE 23:11:03 46° ESE 23:16:47 10° NE
Cosmos 1892 Rocket 3.5 23:14:31 78° NE 23:14:31 78° NE 23:18:40 10° N
Nimbus 7 Rocket 4.4 23:08:52 10° NNE 23:14:47 80° WNW 23:16:59 41° SSW
CZ-2C R/B 3.2 23:16:09 58° S 23:17:14 78° WSW 23:22:53 10° NNW
Helios 1B rocket 4.1 23:13:59 10° N 23:17:38 30° WNW 23:19:15 23° WSW
Cosmos 192 4.3 23:16:53 61° SW 23:17:42 78° WNW 23:22:38 10° NNE
SJ 16-02 3.3 23:16:22 10° NW 23:19:31 19° W 23:20:26 18° WSW
Cosmos 1842 3.9 23:20:57 50° NNE 23:20:57 50° NNE 23:23:59 10° NNE
Cosmos 1805 3.8 23:17:18 10° N 23:20:32 54° NNE 23:20:32 54° NNE
Cosmos 1538 Rocket 3.8 23:24:21 72° SE 23:24:34 74° ESE 23:29:48 10° NNE
Cosmos 2228 3.0 23:21:46 10° N 23:25:44 76° N 23:25:44 76° N
Cosmos 2333 Rocket 2.2 23:21:08 10° NNW 23:26:49 71° WSW 23:27:41 60° SSW
SL-16 R/B 3.5 23:24:21 10° N 23:29:16 29° NE 23:30:55 25° E
COSMOS 2428 3.4 23:24:22 10° NW 23:29:38 40° WSW 23:30:38 37° SW
CZ-4C R/B 3.2 23:26:20 10° NW 23:33:33 58° WSW 23:35:47 44° S
Cosmos 1726 Rocket 3.9 23:29:39 10° NNW 23:33:54 57° W 23:33:54 57° W
Cosmos 1980 3.5 23:32:56 10° NNW 23:38:38 87° ENE 23:39:12 73° SE
Lacrosse 5 rocket 3.9 23:37:12 10° W 23:38:05 12° W 23:38:05 12° W
Cosmos 2180 Rocket 4.4 23:38:13 61° S 23:39:26 82° E 23:45:44 10° N
COBE Rocket 4.0 23:37:02 10° NNE 23:41:17 62° ENE 23:41:17 62° ENE
Cosmos 2297 Rocket 2.0 23:44:24 76° SSE 23:44:45 80° ESE 23:50:26 10° NNE
ERBS 4.4 23:41:56 10° NNW 23:44:10 25° NNE 23:44:10 25° NNE
Cosmos 2227 Rocket 2.1 23:47:43 70° SW 23:48:24 86° WNW 23:54:06 10° NNE
Cosmos 1953 3.4 23:44:55 10° N 23:47:46 39° NNE 23:47:46 39° NNE
Cosmos 2058 Rocket 3.6 23:46:42 10° NNW 23:50:47 52° WNW 23:50:47 52° WNW
